Year,Month,Day,Hour,Minute,Value (Times are PST for temperature in C)
2014,09,21,00,00,14.10
2014,09,21,00,01,14.10
2014,09,21,00,02,14.10
2014,09,21,00,03,14.10
2014,09,21,00,04,14.10
2014,09,21,00,05,14.10
2014,09,21,00,06,14.00
2014,09,21,00,07,14.00
2014,09,21,00,08,14.00
2014,09,21,00,09,14.00
2014,09,21,00,10,14.00
2014,09,21,00,11,13.90
2014,09,21,00,12,13.90
2014,09,21,00,13,13.90
2014,09,21,00,14,13.90
2014,09,21,00,15,13.90
2014,09,21,00,16,13.90
2014,09,21,00,17,13.90
2014,09,21,00,18,13.80
2014,09,21,00,19,13.80
2014,09,21,00,20,13.80
2014,09,21,00,21,13.80
2014,09,21,00,22,13.80
2014,09,21,00,23,13.80
2014,09,21,00,24,13.80
2014,09,21,00,25,13.80
2014,09,21,00,26,13.80
2014,09,21,00,27,13.80
2014,09,21,00,28,13.80
2014,09,21,00,29,13.80
2014,09,21,00,30,13.80
2014,09,21,00,31,13.80
2014,09,21,00,32,13.80
2014,09,21,00,33,13.80
2014,09,21,00,34,13.80
2014,09,21,00,35,13.80
2014,09,21,00,36,13.80
2014,09,21,00,37,13.80
2014,09,21,00,38,13.80
2014,09,21,00,39,13.80
2014,09,21,00,40,13.80
2014,09,21,00,41,13.80
2014,09,21,00,42,13.80
2014,09,21,00,43,13.80
2014,09,21,00,44,13.80
2014,09,21,00,45,13.80
2014,09,21,00,46,13.80
2014,09,21,00,47,13.80
2014,09,21,00,48,13.80
2014,09,21,00,49,13.80
2014,09,21,00,50,13.80
2014,09,21,00,51,13.80
2014,09,21,00,52,13.80
2014,09,21,00,53,13.80
2014,09,21,00,54,13.90
2014,09,21,00,55,13.90
2014,09,21,00,56,13.90
2014,09,21,00,57,13.90
2014,09,21,00,58,13.90
2014,09,21,00,59,13.90
2014,09,21,01,00,13.90
2014,09,21,01,01,13.90
2014,09,21,01,02,13.90
2014,09,21,01,03,13.90
2014,09,21,01,04,13.90
2014,09,21,01,05,13.90
2014,09,21,01,06,13.90
2014,09,21,01,07,13.90
2014,09,21,01,08,13.90
2014,09,21,01,09,13.90
2014,09,21,01,10,13.90
2014,09,21,01,11,13.80
2014,09,21,01,12,13.80
2014,09,21,01,13,13.80
2014,09,21,01,14,13.80
2014,09,21,01,15,13.80
2014,09,21,01,16,13.80
2014,09,21,01,17,13.80
2014,09,21,01,18,13.80
2014,09,21,01,19,13.80
2014,09,21,01,20,13.80
2014,09,21,01,21,13.80
2014,09,21,01,22,13.80
2014,09,21,01,23,13.80
2014,09,21,01,24,13.70
2014,09,21,01,25,13.70
2014,09,21,01,26,13.70
2014,09,21,01,27,13.70
2014,09,21,01,28,13.70
2014,09,21,01,29,13.70
2014,09,21,01,30,13.70
2014,09,21,01,31,13.70
2014,09,21,01,32,13.70
2014,09,21,01,33,13.70
2014,09,21,01,34,13.70
2014,09,21,01,35,13.70
2014,09,21,01,36,13.70
2014,09,21,01,37,13.70
2014,09,21,01,38,13.70
2014,09,21,01,39,13.70
2014,09,21,01,40,13.60
2014,09,21,01,41,13.60
2014,09,21,01,42,13.60
2014,09,21,01,43,13.60
2014,09,21,01,44,13.50
2014,09,21,01,45,13.50
2014,09,21,01,46,13.50
2014,09,21,01,47,13.50
2014,09,21,01,48,13.50
2014,09,21,01,49,13.50
2014,09,21,01,50,13.50
2014,09,21,01,51,13.40
2014,09,21,01,52,13.40
2014,09,21,01,53,13.40
2014,09,21,01,54,13.40
2014,09,21,01,55,13.40
2014,09,21,01,56,13.40
2014,09,21,01,57,13.40
2014,09,21,01,58,13.30
2014,09,21,01,59,13.30
2014,09,21,02,00,13.30
2014,09,21,02,01,13.30
2014,09,21,02,02,13.30
2014,09,21,02,03,13.30
2014,09,21,02,04,13.30
2014,09,21,02,05,13.30
2014,09,21,02,06,13.30
2014,09,21,02,07,13.30
2014,09,21,02,08,13.30
2014,09,21,02,09,13.30
2014,09,21,02,10,13.30
2014,09,21,02,11,13.30
2014,09,21,02,12,13.30
2014,09,21,02,13,13.20
2014,09,21,02,14,13.20
2014,09,21,02,15,13.20
2014,09,21,02,16,13.20
2014,09,21,02,17,13.20
2014,09,21,02,18,13.20
2014,09,21,02,19,13.20
2014,09,21,02,20,13.20
2014,09,21,02,21,13.20
2014,09,21,02,22,13.20
2014,09,21,02,23,13.20
2014,09,21,02,24,13.20
2014,09,21,02,25,13.10
2014,09,21,02,26,13.10
2014,09,21,02,27,13.10
2014,09,21,02,28,13.10
2014,09,21,02,29,13.10
2014,09,21,02,30,13.10
2014,09,21,02,31,13.10
2014,09,21,02,32,13.00
2014,09,21,02,33,13.00
2014,09,21,02,34,13.00
2014,09,21,02,35,12.90
2014,09,21,02,36,12.90
2014,09,21,02,37,12.90
2014,09,21,02,38,12.90
2014,09,21,02,39,12.90
2014,09,21,02,40,12.90
2014,09,21,02,41,12.90
2014,09,21,02,42,12.90
2014,09,21,02,43,12.90
2014,09,21,02,44,12.90
2014,09,21,02,45,12.90
2014,09,21,02,46,12.90
2014,09,21,02,47,12.90
2014,09,21,02,48,12.80
2014,09,21,02,49,12.80
2014,09,21,02,50,12.80
2014,09,21,02,51,12.80
2014,09,21,02,52,12.80
2014,09,21,02,53,12.80
2014,09,21,02,54,12.80
2014,09,21,02,55,12.80
2014,09,21,02,56,12.90
2014,09,21,02,57,12.90
2014,09,21,02,58,12.90
2014,09,21,02,59,12.90
2014,09,21,03,00,12.80
2014,09,21,03,01,12.80
2014,09,21,03,02,12.80
2014,09,21,03,03,12.80
2014,09,21,03,04,12.80
2014,09,21,03,05,12.80
2014,09,21,03,06,12.80
2014,09,21,03,07,12.70
2014,09,21,03,08,12.70
2014,09,21,03,09,12.70
2014,09,21,03,10,12.70
2014,09,21,03,11,12.70
2014,09,21,03,12,12.70
2014,09,21,03,13,12.70
2014,09,21,03,14,12.70
2014,09,21,03,15,12.70
2014,09,21,03,16,12.70
2014,09,21,03,17,12.70
2014,09,21,03,18,12.70
2014,09,21,03,19,12.70
2014,09,21,03,20,12.70
2014,09,21,03,21,12.70
2014,09,21,03,22,12.70
2014,09,21,03,23,12.70
2014,09,21,03,24,12.70
2014,09,21,03,25,12.80
2014,09,21,03,26,12.80
2014,09,21,03,27,12.80
2014,09,21,03,28,12.90
2014,09,21,03,29,12.90
2014,09,21,03,30,12.90
2014,09,21,03,31,13.00
2014,09,21,03,32,13.00
2014,09,21,03,33,13.10
2014,09,21,03,34,13.10
2014,09,21,03,35,13.20
2014,09,21,03,36,13.30
2014,09,21,03,37,13.30
2014,09,21,03,38,13.30
2014,09,21,03,39,13.40
2014,09,21,03,40,13.50
2014,09,21,03,41,13.50
2014,09,21,03,42,13.60
2014,09,21,03,43,13.60
2014,09,21,03,44,13.60
2014,09,21,03,45,13.60
2014,09,21,03,46,13.60
2014,09,21,03,47,13.70
2014,09,21,03,48,13.70
2014,09,21,03,49,13.70
2014,09,21,03,50,13.70
2014,09,21,03,51,13.70
2014,09,21,03,52,13.70
2014,09,21,03,53,13.70
2014,09,21,03,54,13.70
2014,09,21,03,55,13.70
2014,09,21,03,56,13.70
2014,09,21,03,57,13.70
2014,09,21,03,58,13.70
2014,09,21,03,59,13.70
2014,09,21,04,00,13.70
2014,09,21,04,01,13.70
2014,09,21,04,02,13.70
2014,09,21,04,03,13.70
2014,09,21,04,04,13.70
2014,09,21,04,05,13.70
2014,09,21,04,06,13.60
2014,09,21,04,07,13.60
2014,09,21,04,08,13.60
2014,09,21,04,09,13.60
2014,09,21,04,10,13.60
2014,09,21,04,11,13.60
2014,09,21,04,12,13.50
2014,09,21,04,13,13.50
2014,09,21,04,14,13.40
2014,09,21,04,15,13.40
2014,09,21,04,16,13.40
2014,09,21,04,17,13.40
2014,09,21,04,18,13.40
2014,09,21,04,19,13.40
2014,09,21,04,20,13.40
2014,09,21,04,21,13.40
2014,09,21,04,22,13.50
2014,09,21,04,23,13.50
2014,09,21,04,24,13.50
2014,09,21,04,25,13.50
2014,09,21,04,26,13.40
2014,09,21,04,27,13.40
2014,09,21,04,28,13.50
2014,09,21,04,29,13.50
2014,09,21,04,30,13.40
2014,09,21,04,31,13.40
2014,09,21,04,32,13.40
2014,09,21,04,33,13.50
2014,09,21,04,34,13.50
2014,09,21,04,35,13.50
2014,09,21,04,36,13.60
2014,09,21,04,37,13.60
2014,09,21,04,38,13.50
2014,09,21,04,39,13.50
2014,09,21,04,40,13.50
2014,09,21,04,41,13.50
2014,09,21,04,42,13.40
2014,09,21,04,43,13.40
2014,09,21,04,44,13.40
2014,09,21,04,45,13.40
2014,09,21,04,46,13.40
2014,09,21,04,47,13.30
2014,09,21,04,48,13.30
2014,09,21,04,49,13.30
2014,09,21,04,50,13.30
2014,09,21,04,51,13.30
2014,09,21,04,52,13.20
2014,09,21,04,53,13.20
2014,09,21,04,54,13.20
2014,09,21,04,55,13.20
2014,09,21,04,56,13.10
2014,09,21,04,57,13.10
2014,09,21,04,58,13.10
2014,09,21,04,59,13.10
2014,09,21,05,00,13.00
2014,09,21,05,01,13.00
2014,09,21,05,02,13.00
2014,09,21,05,03,13.00
2014,09,21,05,04,12.90
2014,09,21,05,05,12.90
2014,09,21,05,06,13.00
2014,09,21,05,07,13.00
2014,09,21,05,08,13.00
2014,09,21,05,09,13.00
2014,09,21,05,10,13.00
2014,09,21,05,11,13.00
2014,09,21,05,12,13.00
2014,09,21,05,13,12.90
2014,09,21,05,14,12.90
2014,09,21,05,15,12.90
2014,09,21,05,16,12.90
2014,09,21,05,17,12.90
2014,09,21,05,18,12.90
2014,09,21,05,19,12.90
2014,09,21,05,20,12.90
2014,09,21,05,21,12.90
2014,09,21,05,22,12.90
2014,09,21,05,23,12.90
2014,09,21,05,24,12.90
2014,09,21,05,25,12.90
2014,09,21,05,26,12.90
2014,09,21,05,27,12.90
2014,09,21,05,28,12.90
2014,09,21,05,29,12.90
2014,09,21,05,30,12.90
2014,09,21,05,31,12.90
2014,09,21,05,32,12.90
2014,09,21,05,33,12.90
2014,09,21,05,34,12.90
2014,09,21,05,35,13.00
2014,09,21,05,36,13.00
2014,09,21,05,37,13.10
2014,09,21,05,38,13.10
2014,09,21,05,39,13.10
2014,09,21,05,40,13.10
2014,09,21,05,41,13.00
2014,09,21,05,42,13.00
2014,09,21,05,43,13.00
2014,09,21,05,44,12.90
2014,09,21,05,45,12.90
2014,09,21,05,46,12.90
2014,09,21,05,47,12.80
2014,09,21,05,48,12.80
2014,09,21,05,49,12.80
2014,09,21,05,50,12.80
2014,09,21,05,51,12.80
2014,09,21,05,52,12.90
2014,09,21,05,53,12.90
2014,09,21,05,54,13.00
2014,09,21,05,55,13.00
2014,09,21,05,56,13.00
2014,09,21,05,57,13.00
2014,09,21,05,58,13.00
2014,09,21,05,59,13.10
2014,09,21,06,00,13.10
2014,09,21,06,01,13.10
2014,09,21,06,02,13.10
2014,09,21,06,03,13.10
2014,09,21,06,04,13.20
2014,09,21,06,05,13.20
2014,09,21,06,06,13.20
2014,09,21,06,07,13.20
2014,09,21,06,08,13.20
2014,09,21,06,09,13.20
2014,09,21,06,10,13.20
2014,09,21,06,11,13.20
2014,09,21,06,12,13.20
2014,09,21,06,13,13.20
2014,09,21,06,14,13.20
2014,09,21,06,15,13.20
2014,09,21,06,16,13.20
2014,09,21,06,17,13.20
2014,09,21,06,18,13.20
2014,09,21,06,19,13.20
2014,09,21,06,20,13.20
2014,09,21,06,21,13.10
2014,09,21,06,22,13.10
2014,09,21,06,23,13.10
2014,09,21,06,24,13.10
2014,09,21,06,25,13.10
2014,09,21,06,26,13.00
2014,09,21,06,27,13.00
2014,09,21,06,28,13.00
2014,09,21,06,29,12.90
2014,09,21,06,30,12.90
2014,09,21,06,31,12.90
2014,09,21,06,32,12.90
2014,09,21,06,33,12.90
2014,09,21,06,34,12.90
2014,09,21,06,35,12.90
2014,09,21,06,36,12.90
2014,09,21,06,37,12.90
2014,09,21,06,38,12.90
2014,09,21,06,39,12.90
2014,09,21,06,40,12.90
2014,09,21,06,41,12.90
2014,09,21,06,42,12.90
2014,09,21,06,43,12.90
2014,09,21,06,44,12.80
2014,09,21,06,45,12.80
2014,09,21,06,46,12.80
2014,09,21,06,47,12.80
2014,09,21,06,48,12.80
2014,09,21,06,49,12.80
2014,09,21,06,50,12.80
2014,09,21,06,51,12.80
2014,09,21,06,52,12.80
2014,09,21,06,53,12.80
2014,09,21,06,54,12.80
2014,09,21,06,55,12.80
2014,09,21,06,56,12.80
2014,09,21,06,57,12.80
2014,09,21,06,58,12.80
2014,09,21,06,59,12.80
2014,09,21,07,00,12.90
2014,09,21,07,01,12.90
2014,09,21,07,02,12.90
2014,09,21,07,03,12.90
2014,09,21,07,04,12.90
2014,09,21,07,05,12.80
2014,09,21,07,06,12.80
2014,09,21,07,07,12.90
2014,09,21,07,08,12.90
2014,09,21,07,09,12.90
2014,09,21,07,10,12.90
2014,09,21,07,11,12.90
2014,09,21,07,12,12.90
2014,09,21,07,13,13.00
2014,09,21,07,14,13.00
2014,09,21,07,15,13.00
2014,09,21,07,16,13.10
2014,09,21,07,17,13.10
2014,09,21,07,18,13.10
2014,09,21,07,19,13.10
2014,09,21,07,20,13.10
2014,09,21,07,21,13.10
2014,09,21,07,22,13.10
2014,09,21,07,23,13.10
2014,09,21,07,24,13.10
2014,09,21,07,25,13.10
2014,09,21,07,26,13.10
2014,09,21,07,27,13.10
2014,09,21,07,28,13.10
2014,09,21,07,29,13.10
2014,09,21,07,30,13.20
2014,09,21,07,31,13.20
2014,09,21,07,32,13.20
2014,09,21,07,33,13.20
2014,09,21,07,34,13.20
2014,09,21,07,35,13.30
2014,09,21,07,36,13.30
2014,09,21,07,37,13.30
2014,09,21,07,38,13.30
2014,09,21,07,39,13.20
2014,09,21,07,40,13.20
2014,09,21,07,41,13.20
2014,09,21,07,42,13.20
2014,09,21,07,43,13.20
2014,09,21,07,44,13.20
2014,09,21,07,45,13.20
2014,09,21,07,46,13.20
2014,09,21,07,47,13.20
2014,09,21,07,48,13.20
2014,09,21,07,49,13.20
2014,09,21,07,50,13.20
2014,09,21,07,51,13.20
2014,09,21,07,52,13.30
2014,09,21,07,53,13.30
2014,09,21,07,54,13.30
2014,09,21,07,55,13.30
2014,09,21,07,56,13.30
2014,09,21,07,57,13.30
2014,09,21,07,58,13.40
2014,09,21,07,59,13.40
2014,09,21,08,00,13.40
2014,09,21,08,01,13.40
2014,09,21,08,02,13.40
2014,09,21,08,03,13.40
2014,09,21,08,04,13.30
2014,09,21,08,05,13.30
2014,09,21,08,06,13.30
2014,09,21,08,07,13.30
2014,09,21,08,08,13.30
2014,09,21,08,09,13.30
2014,09,21,08,10,13.30
2014,09,21,08,11,13.30
2014,09,21,08,12,13.30
2014,09,21,08,13,13.30
2014,09,21,08,14,13.30
2014,09,21,08,15,13.30
2014,09,21,08,16,13.30
2014,09,21,08,17,13.30
2014,09,21,08,18,13.40
2014,09,21,08,19,13.40
2014,09,21,08,20,13.50
2014,09,21,08,21,13.60
2014,09,21,08,22,13.60
2014,09,21,08,23,13.70
2014,09,21,08,24,13.70
2014,09,21,08,25,13.80
2014,09,21,08,26,13.90
2014,09,21,08,27,14.00
2014,09,21,08,28,14.10
2014,09,21,08,29,14.10
2014,09,21,08,30,14.20
2014,09,21,08,31,14.20
2014,09,21,08,32,14.30
2014,09,21,08,33,14.30
2014,09,21,08,34,14.30
2014,09,21,08,35,14.30
2014,09,21,08,36,14.30
2014,09,21,08,37,14.30
2014,09,21,08,38,14.30
2014,09,21,08,39,14.30
2014,09,21,08,40,14.30
2014,09,21,08,41,14.30
2014,09,21,08,42,14.40
2014,09,21,08,43,14.40
2014,09,21,08,44,14.40
2014,09,21,08,45,14.50
2014,09,21,08,46,14.50
2014,09,21,08,47,14.60
2014,09,21,08,48,14.70
2014,09,21,08,49,14.80
2014,09,21,08,50,14.80
2014,09,21,08,51,14.90
2014,09,21,08,52,15.00
2014,09,21,08,53,15.00
2014,09,21,08,54,15.10
2014,09,21,08,55,15.10
2014,09,21,08,56,15.20
2014,09,21,08,57,15.30
2014,09,21,08,58,15.30
2014,09,21,08,59,15.40
2014,09,21,09,00,15.40
2014,09,21,09,01,15.40
2014,09,21,09,02,15.50
2014,09,21,09,03,15.50
2014,09,21,09,04,15.50
2014,09,21,09,05,15.50
2014,09,21,09,06,15.40
2014,09,21,09,07,15.40
2014,09,21,09,08,15.40
2014,09,21,09,09,15.40
2014,09,21,09,10,15.40
2014,09,21,09,11,15.40
2014,09,21,09,12,15.40
2014,09,21,09,13,15.40
2014,09,21,09,14,15.40
2014,09,21,09,15,15.50
2014,09,21,09,16,15.50
2014,09,21,09,17,15.60
2014,09,21,09,18,15.70
2014,09,21,09,19,15.70
2014,09,21,09,20,15.80
2014,09,21,09,21,15.80
2014,09,21,09,22,15.90
2014,09,21,09,23,15.90
2014,09,21,09,24,15.90
2014,09,21,09,25,16.00
2014,09,21,09,26,16.00
2014,09,21,09,27,16.10
2014,09,21,09,28,16.10
2014,09,21,09,29,16.10
2014,09,21,09,30,16.10
2014,09,21,09,31,16.10
2014,09,21,09,32,16.10
2014,09,21,09,33,16.00
2014,09,21,09,34,16.00
2014,09,21,09,35,16.00
2014,09,21,09,36,16.00
2014,09,21,09,37,16.00
2014,09,21,09,38,16.00
2014,09,21,09,39,16.00
2014,09,21,09,40,16.00
2014,09,21,09,41,16.00
2014,09,21,09,42,16.10
2014,09,21,09,43,16.10
2014,09,21,09,44,16.10
2014,09,21,09,45,16.20
2014,09,21,09,46,16.20
2014,09,21,09,47,16.30
2014,09,21,09,48,16.40
2014,09,21,09,49,16.50
2014,09,21,09,50,16.60
2014,09,21,09,51,16.60
2014,09,21,09,52,16.70
2014,09,21,09,53,16.80
2014,09,21,09,54,16.90
2014,09,21,09,55,17.00
2014,09,21,09,56,17.10
2014,09,21,09,57,17.20
2014,09,21,09,58,17.40
2014,09,21,09,59,17.50
2014,09,21,10,00,17.60
2014,09,21,10,01,17.70
2014,09,21,10,02,17.80
2014,09,21,10,03,17.90
2014,09,21,10,04,18.00
2014,09,21,10,05,18.00
2014,09,21,10,06,18.10
2014,09,21,10,07,18.10
2014,09,21,10,08,18.20
2014,09,21,10,09,18.20
2014,09,21,10,10,18.20
2014,09,21,10,11,18.20
2014,09,21,10,12,18.20
2014,09,21,10,13,18.20
2014,09,21,10,14,18.20
2014,09,21,10,15,18.20
2014,09,21,10,16,18.20
2014,09,21,10,17,18.20
2014,09,21,10,18,18.20
2014,09,21,10,19,18.30
2014,09,21,10,20,18.40
2014,09,21,10,21,18.40
2014,09,21,10,22,18.50
2014,09,21,10,23,18.60
2014,09,21,10,24,18.70
2014,09,21,10,25,18.80
2014,09,21,10,26,18.90
2014,09,21,10,27,19.00
2014,09,21,10,28,19.10
2014,09,21,10,29,19.10
2014,09,21,10,30,19.10
2014,09,21,10,31,19.20
2014,09,21,10,32,19.20
2014,09,21,10,33,19.20
2014,09,21,10,34,19.20
2014,09,21,10,35,19.20
2014,09,21,10,36,19.30
2014,09,21,10,37,19.30
2014,09,21,10,38,19.40
2014,09,21,10,39,19.40
2014,09,21,10,40,19.40
2014,09,21,10,41,19.50
2014,09,21,10,42,19.50
2014,09,21,10,43,19.60
2014,09,21,10,44,19.70
2014,09,21,10,45,19.70
2014,09,21,10,46,19.70
2014,09,21,10,47,19.70
2014,09,21,10,48,19.80
2014,09,21,10,49,19.80
2014,09,21,10,50,19.80
2014,09,21,10,51,19.80
2014,09,21,10,52,19.80
2014,09,21,10,53,19.80
2014,09,21,10,54,19.80
2014,09,21,10,55,19.80
2014,09,21,10,56,19.80
2014,09,21,10,57,19.80
2014,09,21,10,58,19.80
2014,09,21,10,59,19.70
2014,09,21,11,00,19.70
2014,09,21,11,01,19.70
2014,09,21,11,02,19.60
2014,09,21,11,03,19.60
2014,09,21,11,04,19.50
2014,09,21,11,05,19.40
2014,09,21,11,06,19.30
2014,09,21,11,07,19.20
2014,09,21,11,08,19.20
2014,09,21,11,09,19.10
2014,09,21,11,10,19.10
2014,09,21,11,11,19.10
2014,09,21,11,12,19.20
2014,09,21,11,13,19.20
2014,09,21,11,14,19.30
2014,09,21,11,15,19.40
2014,09,21,11,16,19.50
2014,09,21,11,17,19.60
2014,09,21,11,18,19.70
2014,09,21,11,19,19.90
2014,09,21,11,20,20.00
2014,09,21,11,21,20.10
2014,09,21,11,22,20.20
2014,09,21,11,23,20.20
2014,09,21,11,24,20.30
2014,09,21,11,25,20.30
2014,09,21,11,26,20.40
2014,09,21,11,27,20.50
2014,09,21,11,28,20.50
2014,09,21,11,29,20.60
2014,09,21,11,30,20.80
2014,09,21,11,31,20.80
2014,09,21,11,32,20.90
2014,09,21,11,33,21.00
2014,09,21,11,34,21.00
2014,09,21,11,35,21.10
2014,09,21,11,36,21.10
2014,09,21,11,37,21.10
2014,09,21,11,38,21.10
2014,09,21,11,39,21.20
2014,09,21,11,40,21.20
2014,09,21,11,41,21.20
2014,09,21,11,42,21.20
2014,09,21,11,43,21.30
2014,09,21,11,44,21.30
2014,09,21,11,45,21.30
2014,09,21,11,46,21.30
2014,09,21,11,47,21.30
2014,09,21,11,48,21.30
2014,09,21,11,49,21.20
2014,09,21,11,50,21.10
2014,09,21,11,51,20.90
2014,09,21,11,52,20.60
2014,09,21,11,53,20.50
2014,09,21,11,54,20.30
2014,09,21,11,55,20.10
2014,09,21,11,56,20.00
2014,09,21,11,57,19.90
2014,09,21,11,58,19.90
2014,09,21,11,59,19.90
2014,09,21,12,00,20.00
2014,09,21,12,01,20.10
2014,09,21,12,02,20.20
2014,09,21,12,03,20.30
2014,09,21,12,04,20.40
2014,09,21,12,05,20.50
2014,09,21,12,06,20.60
2014,09,21,12,07,20.60
2014,09,21,12,08,20.70
2014,09,21,12,09,20.80
2014,09,21,12,10,20.90
2014,09,21,12,11,20.90
2014,09,21,12,12,21.00
2014,09,21,12,13,21.10
2014,09,21,12,14,21.10
2014,09,21,12,15,21.20
2014,09,21,12,16,21.20
2014,09,21,12,17,21.20
2014,09,21,12,18,21.20
2014,09,21,12,19,21.20
2014,09,21,12,20,21.20
2014,09,21,12,21,21.20
2014,09,21,12,22,21.20
2014,09,21,12,23,21.10
2014,09,21,12,24,21.10
2014,09,21,12,25,21.10
2014,09,21,12,26,21.10
2014,09,21,12,27,21.20
2014,09,21,12,28,21.20
2014,09,21,12,29,21.20
2014,09,21,12,30,21.20
2014,09,21,12,31,21.30
2014,09,21,12,32,21.30
2014,09,21,12,33,21.40
2014,09,21,12,34,21.40
2014,09,21,12,35,21.40
2014,09,21,12,36,21.50
2014,09,21,12,37,21.50
2014,09,21,12,38,21.60
2014,09,21,12,39,21.70
2014,09,21,12,40,21.70
2014,09,21,12,41,21.70
2014,09,21,12,42,21.80
2014,09,21,12,43,21.80
2014,09,21,12,44,21.80
2014,09,21,12,45,21.80
2014,09,21,12,46,21.80
2014,09,21,12,47,21.80
2014,09,21,12,48,21.90
2014,09,21,12,49,21.90
2014,09,21,12,50,21.90
2014,09,21,12,51,21.90
2014,09,21,12,52,22.00
2014,09,21,12,53,22.10
2014,09,21,12,54,22.20
2014,09,21,12,55,22.20
2014,09,21,12,56,22.30
2014,09,21,12,57,22.30
2014,09,21,12,58,22.30
2014,09,21,12,59,22.40
2014,09,21,13,00,22.40
2014,09,21,13,01,22.30
2014,09,21,13,02,22.30
2014,09,21,13,03,22.30
2014,09,21,13,04,22.20
2014,09,21,13,05,22.20
2014,09,21,13,06,22.20
2014,09,21,13,07,22.20
2014,09,21,13,08,22.20
2014,09,21,13,09,22.30
2014,09,21,13,10,22.40
2014,09,21,13,11,22.40
2014,09,21,13,12,22.50
2014,09,21,13,13,22.50
2014,09,21,13,14,22.60
2014,09,21,13,15,22.70
2014,09,21,13,16,22.70
2014,09,21,13,17,22.60
2014,09,21,13,18,22.60
2014,09,21,13,19,22.60
2014,09,21,13,20,22.70
2014,09,21,13,21,22.80
2014,09,21,13,22,22.80
2014,09,21,13,23,22.80
2014,09,21,13,24,22.70
2014,09,21,13,25,22.70
2014,09,21,13,26,22.70
2014,09,21,13,27,22.70
2014,09,21,13,28,22.70
2014,09,21,13,29,22.70
2014,09,21,13,30,22.70
2014,09,21,13,31,22.70
2014,09,21,13,32,22.80
2014,09,21,13,33,22.80
2014,09,21,13,34,22.80
2014,09,21,13,35,22.90
2014,09,21,13,36,23.00
2014,09,21,13,37,23.00
2014,09,21,13,38,23.00
2014,09,21,13,39,22.90
2014,09,21,13,40,22.90
2014,09,21,13,41,23.00
2014,09,21,13,42,23.00
2014,09,21,13,43,23.10
2014,09,21,13,44,23.20
2014,09,21,13,45,23.20
2014,09,21,13,46,23.20
2014,09,21,13,47,23.30
2014,09,21,13,48,23.30
2014,09,21,13,49,23.30
2014,09,21,13,50,23.40
2014,09,21,13,51,23.40
2014,09,21,13,52,23.50
2014,09,21,13,53,23.60
2014,09,21,13,54,23.60
2014,09,21,13,55,23.70
2014,09,21,13,56,23.80
2014,09,21,13,57,23.80
2014,09,21,13,58,23.90
2014,09,21,13,59,24.00
2014,09,21,14,00,24.00
2014,09,21,14,01,24.00
2014,09,21,14,02,24.00
2014,09,21,14,03,24.00
2014,09,21,14,04,24.00
2014,09,21,14,05,24.00
2014,09,21,14,06,24.00
2014,09,21,14,07,24.00
2014,09,21,14,08,24.00
2014,09,21,14,09,24.10
2014,09,21,14,10,24.10
2014,09,21,14,11,24.20
2014,09,21,14,12,24.20
2014,09,21,14,13,24.30
2014,09,21,14,14,24.30
2014,09,21,14,15,24.30
2014,09,21,14,16,24.20
2014,09,21,14,17,24.20
2014,09,21,14,18,24.20
2014,09,21,14,19,24.20
2014,09,21,14,20,24.20
2014,09,21,14,21,24.10
2014,09,21,14,22,24.00
2014,09,21,14,23,24.00
2014,09,21,14,24,23.90
2014,09,21,14,25,23.80
2014,09,21,14,26,23.80
2014,09,21,14,27,23.80
2014,09,21,14,28,23.70
2014,09,21,14,29,23.70
2014,09,21,14,30,23.70
2014,09,21,14,31,23.60
2014,09,21,14,32,23.60
2014,09,21,14,33,23.70
2014,09,21,14,34,23.70
2014,09,21,14,35,23.70
2014,09,21,14,36,23.70
2014,09,21,14,37,23.60
2014,09,21,14,38,23.60
2014,09,21,14,39,23.50
2014,09,21,14,40,23.50
2014,09,21,14,41,23.40
2014,09,21,14,42,23.40
2014,09,21,14,43,23.40
2014,09,21,14,44,23.30
2014,09,21,14,45,23.30
2014,09,21,14,46,23.30
2014,09,21,14,47,23.40
2014,09,21,14,48,23.40
2014,09,21,14,49,23.40
2014,09,21,14,50,23.40
2014,09,21,14,51,23.40
2014,09,21,14,52,23.40
2014,09,21,14,53,23.40
2014,09,21,14,54,23.40
2014,09,21,14,55,23.50
2014,09,21,14,56,23.50
2014,09,21,14,57,23.50
2014,09,21,14,58,23.60
2014,09,21,14,59,23.60
2014,09,21,15,00,23.60
2014,09,21,15,01,23.60
2014,09,21,15,02,23.60
2014,09,21,15,03,23.60
2014,09,21,15,04,23.60
2014,09,21,15,05,23.60
2014,09,21,15,06,23.60
2014,09,21,15,07,23.70
2014,09,21,15,08,23.70
2014,09,21,15,09,23.80
2014,09,21,15,10,23.80
2014,09,21,15,11,23.80
2014,09,21,15,12,23.90
2014,09,21,15,13,24.00
2014,09,21,15,14,24.00
2014,09,21,15,15,24.00
2014,09,21,15,16,24.10
2014,09,21,15,17,24.20
2014,09,21,15,18,24.20
2014,09,21,15,19,24.30
2014,09,21,15,20,24.30
2014,09,21,15,21,24.30
2014,09,21,15,22,24.40
2014,09,21,15,23,24.40
2014,09,21,15,24,24.40
2014,09,21,15,25,24.40
2014,09,21,15,26,24.40
2014,09,21,15,27,24.40
2014,09,21,15,28,24.50
2014,09,21,15,29,24.40
2014,09,21,15,30,24.50
2014,09,21,15,31,24.50
2014,09,21,15,32,24.60
2014,09,21,15,33,24.60
2014,09,21,15,34,24.70
2014,09,21,15,35,24.70
2014,09,21,15,36,24.80
2014,09,21,15,37,24.80
2014,09,21,15,38,24.80
2014,09,21,15,39,24.80
2014,09,21,15,40,24.90
2014,09,21,15,41,24.90
2014,09,21,15,42,24.90
2014,09,21,15,43,25.00
2014,09,21,15,44,25.00
2014,09,21,15,45,25.00
2014,09,21,15,46,25.00
2014,09,21,15,47,25.00
2014,09,21,15,48,25.10
2014,09,21,15,49,25.10
2014,09,21,15,50,25.00
2014,09,21,15,51,25.00
2014,09,21,15,52,24.90
2014,09,21,15,53,24.90
2014,09,21,15,54,24.90
2014,09,21,15,55,24.90
2014,09,21,15,56,24.90
2014,09,21,15,57,24.90
2014,09,21,15,58,24.90
2014,09,21,15,59,24.90
2014,09,21,16,00,24.90
2014,09,21,16,01,25.00
2014,09,21,16,02,25.00
2014,09,21,16,03,25.10
2014,09,21,16,04,25.10
2014,09,21,16,05,25.10
2014,09,21,16,06,25.10
2014,09,21,16,07,25.10
2014,09,21,16,08,25.10
2014,09,21,16,09,25.20
2014,09,21,16,10,25.10
2014,09,21,16,11,25.10
2014,09,21,16,12,25.10
2014,09,21,16,13,25.00
2014,09,21,16,14,25.00
2014,09,21,16,15,25.00
2014,09,21,16,16,24.90
2014,09,21,16,17,24.90
2014,09,21,16,18,24.90
2014,09,21,16,19,24.90
2014,09,21,16,20,24.90
2014,09,21,16,21,24.90
2014,09,21,16,22,24.90
2014,09,21,16,23,24.90
2014,09,21,16,24,24.80
2014,09,21,16,25,24.90
2014,09,21,16,26,24.90
2014,09,21,16,27,24.90
2014,09,21,16,28,24.90
2014,09,21,16,29,25.00
2014,09,21,16,30,25.00
2014,09,21,16,31,25.00
2014,09,21,16,32,25.10
2014,09,21,16,33,25.10
2014,09,21,16,34,25.10
2014,09,21,16,35,25.10
2014,09,21,16,36,25.10
2014,09,21,16,37,25.10
2014,09,21,16,38,25.10
2014,09,21,16,39,25.20
2014,09,21,16,40,25.20
2014,09,21,16,41,25.20
2014,09,21,16,42,25.20
2014,09,21,16,43,25.20
2014,09,21,16,44,25.10
2014,09,21,16,45,25.10
2014,09,21,16,46,25.10
2014,09,21,16,47,25.10
2014,09,21,16,48,25.10
2014,09,21,16,49,25.00
2014,09,21,16,50,25.00
2014,09,21,16,51,25.00
2014,09,21,16,52,25.00
2014,09,21,16,53,24.90
2014,09,21,16,54,24.90
2014,09,21,16,55,24.90
2014,09,21,16,56,24.90
2014,09,21,16,57,24.90
2014,09,21,16,58,24.90
2014,09,21,16,59,24.90
2014,09,21,17,00,24.90
2014,09,21,17,01,25.00
2014,09,21,17,02,25.00
2014,09,21,17,03,25.00
2014,09,21,17,04,25.00
2014,09,21,17,05,25.10
2014,09,21,17,06,25.10
2014,09,21,17,07,25.10
2014,09,21,17,08,25.10
2014,09,21,17,09,25.10
2014,09,21,17,10,25.10
2014,09,21,17,11,25.10
2014,09,21,17,12,25.10
2014,09,21,17,13,25.10
2014,09,21,17,14,25.20
2014,09,21,17,15,25.20
2014,09,21,17,16,25.20
2014,09,21,17,17,25.10
2014,09,21,17,18,25.10
2014,09,21,17,19,25.10